Regional Weather Roundup
Issued by NWS

Home | Current Version | Previous Version | Graphics & Text | Print | Product List | Glossary On
Versions: 1 2 3 4 5 6 7 8 9 10 11 12 13 14 15 16 17 18 19 20 21 22 23 24 25 26 27 28 29 30 31 32 33 34 35 36 37 38 39 40 41 42 43 44 45 46 47 48 49 50
056
ASUS44 KMEG 052310
RWRTN
TENNESSEE HOURLY STATE WEATHER ROUNDUP
NATIONAL WEATHER SERVICE MEMPHIS TN
500 PM CST FRI FEB 05 2016

TNZ002-004-019-021-049-052-054-088>092-060000-
WEST TENNESSEE

CITY           SKY/WX    TMP DP  RH WIND       PRES   REMARKS
MEMPHIS INTL   CLOUDY    50  20  30 SW6       30.40S
NWS MEMPHIS      N/A     50 N/A N/A MISG        N/A
JACKSON        CLOUDY    48  19  31 NW3       30.40R
DYERSBURG      PTCLDY    46  25  42 SW5       30.40S
UNION CITY     CLEAR     46  25  42 SW6       30.37S
PARIS          CLEAR     43  21  42 SW6       30.38S
LEXINGTON      CLEAR     46  12  25 NW5       30.38S
$$

TNZ008-025-027-028-033-062-065-066-060000-
NORTH MIDDLE TENNESSEE

CITY           SKY/WX    TMP DP  RH WIND       PRES   REMARKS
NASHVILLE      MOCLDY    47  12  24 CALM      30.39F
CLARKSVILLE    CLOUDY    46  19  34 W5        30.38S
SMYRNA         CLEAR     44  15  31 SE6       30.40F
COOKEVILLE     CLEAR     41  18  38 CALM      30.37S
CROSSVILLE     CLEAR     40  12  32 N5        30.36S
$$

TNZ061-075-076-078-094-096-097-060000-
SOUTH MIDDLE TENNESSEE

CITY           SKY/WX    TMP DP  RH WIND       PRES   REMARKS
FAYETTEVILLE   CLEAR     45  16  31 N5        30.38S
TULLAHOMA      CLEAR     41  12  30 CALM      30.38F
WINCHESTER     CLEAR     43  18  36 NE6       30.38F
MCMINNVILLE    CLEAR     43  18  36 CALM      30.38F
COLUMBIA       CLEAR     45  25  45 E3        30.36F
SHELBYVILLE    CLEAR     45  16  31 CALM      30.40S
$$

TNZ017-018-042-046-047-060000-
NORTHEAST TENNESSEE

CITY           SKY/WX    TMP DP  RH WIND       PRES   REMARKS
TRI CITIES     PTCLDY    38   9  30 N3        30.37R
$$

TNZ012-013-036-069-073-074-060000-
CENTRAL EAST TENNESSEE

CITY           SKY/WX    TMP DP  RH WIND       PRES   REMARKS
KNOXVILLE      MOCLDY    41  15  35 E5        30.39S
OAK RIDGE      CLEAR     44  11  26 SE3       30.40S
GATLINBURG       N/A     39  12  33 NE5       30.39R
MORRISTOWN     CLEAR     39  16  38 S5        30.37R
$$

TNZ083-085-099-060000-
SOUTHEAST TENNESSEE

CITY           SKY/WX    TMP DP  RH WIND       PRES   REMARKS
CHATTANOOGA    PTCLDY    45  13  27 E7        30.39S
$$

SKY/WX REPORTED AS FAIR MEANS FEW OR NO CLOUDS BELOW
12 THOUSAND FEET.





USA.gov is the U.S. government's official web portal to all federal, state and local government web resources and services.